When you browse on this site, cookies collect data to enhance your experience and personalize the content and advertising you see.
Visit our Privacy Policy to learn more. By continuing to use the site, you agree to this use of cookies and data.
  • In Hungary
  • List of Countries
  • For 7 days
  • Water Temperature
  • Weather Map
  • News
  • Weather Widgets
  • user-avatar
    Login

    Hourly Weather Soltau

    Today, 12 December, Thursday

    Time Temperature Precipitation Wind Pressure Humidity
    00:00 +4°C° 0 mm 2 mps 746 mmHg 93%
    01:00 +4°C° 0 mm 2 mps 746 mmHg 94%
    02:00 +3°C° 0 mm 2 mps 745 mmHg 94%
    03:00 +3°C° 0 mm 2 mps 745 mmHg 94%
    04:00 +3°C° 0 mm 2 mps 744 mmHg 95%
    05:00 +2°C° 0 mm 3 mps 744 mmHg 95%
    06:00 +1°C° 0 mm 3 mps 744 mmHg 94%
    07:00 +1°C° 0 mm 3 mps 744 mmHg 94%
    08:00 +2°C° 0 mm 3 mps 744 mmHg 93%
    09:00 +1°C° 0 mm 4 mps 744 mmHg 91%
    10:00 +1°C° 0 mm 4 mps 744 mmHg 90%
    11:00 +3°C° 0 mm 4 mps 744 mmHg 88%
    12:00 +3°C° 0 mm 4 mps 744 mmHg 86%
    13:00 +3°C° 0 mm 4 mps 744 mmHg 84%
    14:00 +3°C° 0 mm 3 mps 743 mmHg 84%
    15:00 +3°C° 0 mm 3 mps 743 mmHg 84%
    16:00 +3°C° 0 mm 3 mps 742 mmHg 85%
    17:00 +3°C° 0 mm 3 mps 742 mmHg 85%
    18:00 +3°C° 0 mm 3 mps 741 mmHg 85%
    19:00 +2°C° 0 mm 3 mps 741 mmHg 85%
    20:00 +2°C° 0 mm 3 mps 740 mmHg 84%
    21:00 0°C° 0 mm 4 mps 739 mmHg 83%
    22:00 0°C° 0 mm 4 mps 738 mmHg 82%
    23:00 0°C° 0 mm 5 mps 737 mmHg 82%

    Tomorrow, 13 December, Friday

    Time Temperature Precipitation Wind Pressure Humidity
    00:00 0°C° 0 mm 5 mps 736 mmHg 81%
    01:00 -1°C° 0 mm 5 mps 735 mmHg 80%
    02:00 -2°C° 0 mm 6 mps 734 mmHg 78%
    03:00 -2°C° 0 mm 6 mps 733 mmHg 76%
    04:00 -1°C° 0 mm 6 mps 731 mmHg 75%
    05:00 -1°C° 0 mm 6 mps 731 mmHg 73%
    06:00 -1°C° 0 mm 6 mps 730 mmHg 71%
    07:00 -1°C° 0 mm 6 mps 729 mmHg 70%
    08:00 -1°C° 0.1 mm 6 mps 729 mmHg 74%
    09:00 -1°C° 0.1 mm 6 mps 729 mmHg 78%
    10:00 0°C° 0.1 mm 5 mps 728 mmHg 82%
    11:00 0°C° 0.1 mm 5 mps 728 mmHg 82%
    12:00 +1°C° 0.1 mm 5 mps 728 mmHg 81%
    13:00 +1°C° 0.1 mm 5 mps 728 mmHg 81%
    14:00 +1°C° 0 mm 5 mps 728 mmHg 81%
    15:00 +1°C° 0 mm 4 mps 728 mmHg 82%
    16:00 +2°C° 0 mm 3 mps 728 mmHg 83%
    17:00 +2°C° 0.1 mm 3 mps 728 mmHg 86%
    18:00 +3°C° 0.1 mm 2 mps 729 mmHg 89%
    19:00 +3°C° 0.1 mm 2 mps 729 mmHg 92%
    20:00 +3°C° 0.4 mm 2 mps 730 mmHg 93%
    21:00 +3°C° 0.4 mm 2 mps 730 mmHg 95%
    22:00 +3°C° 0.4 mm 3 mps 731 mmHg 96%
    23:00 +3°C° 0.4 mm 4 mps 731 mmHg 93%

    Day after tomorrow, 14 December, Saturday

    Time Temperature Precipitation Wind Pressure Humidity
    00:00 +3°C° 0.4 mm 5 mps 732 mmHg 91%
    01:00 +3°C° 0.4 mm 6 mps 732 mmHg 88%
    02:00 +3°C° 0.1 mm 6 mps 732 mmHg 89%
    03:00 +3°C° 0.1 mm 5 mps 732 mmHg 89%
    04:00 +3°C° 0.1 mm 5 mps 733 mmHg 89%
    05:00 +3°C° 0.2 mm 5 mps 733 mmHg 88%
    06:00 +3°C° 0.2 mm 5 mps 733 mmHg 86%
    07:00 +3°C° 0.2 mm 6 mps 733 mmHg 85%
    08:00 +3°C° 0.3 mm 6 mps 733 mmHg 87%
    09:00 +3°C° 0.3 mm 5 mps 732 mmHg 89%
    10:00 +2°C° 0.3 mm 5 mps 732 mmHg 91%
    11:00 +3°C° 0.8 mm 7 mps 732 mmHg 87%
    12:00 +3°C° 0.8 mm 9 mps 732 mmHg 84%
    13:00 +3°C° 0.8 mm 11 mps 732 mmHg 80%
    14:00 +3°C° 0.1 mm 10 mps 733 mmHg 75%
    15:00 +2°C° 0.1 mm 9 mps 735 mmHg 71%
    16:00 +2°C° 0.1 mm 9 mps 736 mmHg 66%
    17:00 +2°C° 0 mm 8 mps 737 mmHg 67%
    18:00 +2°C° 0 mm 7 mps 738 mmHg 69%
    19:00 +2°C° 0 mm 6 mps 739 mmHg 71%
    20:00 +2°C° 0.4 mm 6 mps 739 mmHg 74%
    21:00 +2°C° 0.4 mm 6 mps 740 mmHg 77%
    22:00 +2°C° 0.4 mm 6 mps 740 mmHg 80%
    23:00 +2°C° 0 mm 6 mps 740 mmHg 78%

    15 December, Sunday

    Time Temperature Precipitation Wind Pressure Humidity
    00:00 +1°C° 0 mm 5 mps 741 mmHg 75%
    01:00 +1°C° 0 mm 4 mps 741 mmHg 73%
    02:00 0°C° 0 mm 4 mps 741 mmHg 76%
    03:00 0°C° 0 mm 4 mps 741 mmHg 79%
    04:00 0°C° 0 mm 4 mps 741 mmHg 83%
    05:00 +1°C° 0.2 mm 4 mps 740 mmHg 84%
    06:00 +2°C° 0.2 mm 5 mps 739 mmHg 86%
    07:00 +3°C° 0.2 mm 5 mps 738 mmHg 88%
    08:00 +3°C° 0.3 mm 6 mps 738 mmHg 82%
    09:00 +4°C° 0.3 mm 7 mps 738 mmHg 75%
    10:00 +4°C° 0.3 mm 8 mps 738 mmHg 69%
    11:00 +3°C° 0 mm 10 mps 739 mmHg 69%
    12:00 +3°C° 0 mm 12 mps 740 mmHg 69%
    13:00 +1°C° 0 mm 14 mps 741 mmHg 68%
    14:00 +2°C° 0 mm 11 mps 743 mmHg 67%
    15:00 +2°C° 0 mm 9 mps 745 mmHg 66%
    16:00 +2°C° 0 mm 7 mps 746 mmHg 66%
    17:00 +2°C° 0 mm 6 mps 747 mmHg 66%
    18:00 +2°C° 0 mm 6 mps 748 mmHg 67%
    19:00 +1°C° 0 mm 5 mps 749 mmHg 67%
    20:00 +1°C° 0 mm 5 mps 749 mmHg 71%
    21:00 +1°C° 0 mm 5 mps 749 mmHg 75%
    22:00 +1°C° 0 mm 5 mps 749 mmHg 79%
    23:00 +2°C° 0 mm 5 mps 749 mmHg 78%

    16 December, Monday

    Time Temperature Precipitation Wind Pressure Humidity
    00:00 +2°C° 0 mm 6 mps 749 mmHg 77%
    01:00 +2°C° 0 mm 6 mps 749 mmHg 77%
    02:00 +2°C° 0 mm 5 mps 749 mmHg 79%
    03:00 +2°C° 0 mm 5 mps 749 mmHg 82%
    04:00 +3°C° 0 mm 4 mps 750 mmHg 84%
    05:00 +3°C° 0 mm 4 mps 750 mmHg 84%
    06:00 +3°C° 0 mm 4 mps 750 mmHg 85%
    07:00 +3°C° 0 mm 4 mps 750 mmHg 85%
    08:00 +3°C° 0 mm 4 mps 751 mmHg 84%
    09:00 +3°C° 0 mm 4 mps 751 mmHg 83%
    10:00 +3°C° 0 mm 4 mps 751 mmHg 82%
    11:00 +4°C° 0 mm 3 mps 751 mmHg 81%
    12:00 +5°C° 0 mm 3 mps 751 mmHg 80%
    13:00 +5°C° 0 mm 3 mps 751 mmHg 80%
    14:00 +5°C° 0 mm 3 mps 751 mmHg 82%
    15:00 +6°C° 0 mm 2 mps 751 mmHg 85%
    16:00 +5°C° 0 mm 2 mps 750 mmHg 87%
    17:00 +5°C° 0 mm 2 mps 750 mmHg 88%
    18:00 +5°C° 0 mm 2 mps 750 mmHg 88%
    19:00 +5°C° 0 mm 2 mps 750 mmHg 89%
    20:00 +5°C° 0 mm 2 mps 750 mmHg 90%
    21:00 +5°C° 0 mm 2 mps 749 mmHg 91%
    22:00 +5°C° 0 mm 2 mps 749 mmHg 92%
    23:00 +5°C° 0.6 mm 2 mps 749 mmHg 94%

    17 December, Tuesday

    Time Temperature Precipitation Wind Pressure Humidity
    00:00 +5°C° 0.6 mm 2 mps 748 mmHg 95%
    01:00 +5°C° 0.6 mm 2 mps 748 mmHg 97%
    02:00 +5°C° 0.4 mm 2 mps 747 mmHg 97%
    03:00 +6°C° 0.4 mm 2 mps 747 mmHg 97%
    04:00 +6°C° 0.4 mm 2 mps 747 mmHg 97%
    05:00 +6°C° 0 mm 2 mps 747 mmHg 93%
    06:00 +5°C° 0 mm 3 mps 746 mmHg 89%
    07:00 +7°C° 0 mm 3 mps 746 mmHg 85%
    08:00 +7°C° 0 mm 3 mps 746 mmHg 84%
    09:00 +7°C° 0 mm 3 mps 747 mmHg 83%
    10:00 +8°C° 0 mm 3 mps 747 mmHg 82%
    11:00 +8°C° 0.1 mm 3 mps 747 mmHg 82%
    12:00 +8°C° 0.1 mm 3 mps 747 mmHg 83%
    13:00 +8°C° 0.1 mm 4 mps 747 mmHg 83%
    14:00 +9°C° 0 mm 3 mps 747 mmHg 84%
    15:00 +9°C° 0 mm 3 mps 747 mmHg 84%
    16:00 +8°C° 0 mm 3 mps 747 mmHg 85%
    17:00 +8°C° 0.1 mm 3 mps 748 mmHg 88%
    18:00 +8°C° 0.1 mm 3 mps 748 mmHg 92%
    19:00 +7°C° 0.1 mm 2 mps 749 mmHg 95%
    20:00 +7°C° 0 mm 3 mps 749 mmHg 94%
    21:00 +5°C° 0 mm 3 mps 750 mmHg 93%
    22:00 +5°C° 0 mm 3 mps 751 mmHg 93%
    23:00 +5°C° 0.5 mm 3 mps 752 mmHg 93%
    Show more